カタログに戻る

STARLINK-34938

運用中通信SSO
NORAD 65236·PAYLOAD·🇺🇸 United States

打ち上げ Aug 18, 2025 から Vandenberg Space Force Base

Loading…

次のパス (今後24時間)

TLE

最新Source: CelesTrak SupGP

元期: Sep 14, 2026, 22:42 UTC

1 65236C 25179B   26257.94631944  .00050945  00000+0  15817-2 0  2571
2 65236  97.2836 297.3296 0001394  89.7216 153.3260 15.33408423    11

AllMySatでSTARLINK-34938をリアルタイム追跡

Download on the App Store